Time,TemperatureF,DewpointF,PressureIn,WindDirection,WindDirectionDegrees,WindSpeedMPH,WindSpeedGustMPH,Humidity,HourlyPrecipIn,Conditions,Clouds,dailyrainin,SoftwareType,DateUTC
2013-02-09 00:02:00,62.0,-99.9,30.09,NNE,28,9.0,10.0,-999,-99.99,,,-99.99,,2013-02-09 05:02:00,
2013-02-09 00:12:00,62.0,-99.9,30.09,NNE,23,7.0,9.0,-999,-99.99,,,-99.99,,2013-02-09 05:12:00,
2013-02-09 00:22:00,62.0,-99.9,30.09,North,9,8.0,9.0,-999,-99.99,,,-99.99,,2013-02-09 05:22:00,
2013-02-09 00:32:00,62.0,-99.9,30.09,North,8,10.0,12.0,-999,-99.99,,,-99.99,,2013-02-09 05:32:00,
2013-02-09 00:42:00,62.0,-99.9,30.09,NNE,25,8.0,11.0,-999,-99.99,,,-99.99,,2013-02-09 05:42:00,
2013-02-09 00:52:00,62.0,-99.9,30.09,NE,34,4.0,6.0,-999,-99.99,,,-99.99,,2013-02-09 05:52:00,
2013-02-09 01:02:00,62.0,-99.9,30.09,NNE,24,5.0,7.0,-999,-99.99,,,-99.99,,2013-02-09 06:02:00,
2013-02-09 01:11:00,62.0,-99.9,30.08,NNE,27,5.0,7.0,-999,-99.99,,,-99.99,,2013-02-09 06:11:00,
2013-02-09 01:22:00,62.0,-99.9,30.08,NNE,27,5.0,6.0,-999,-99.99,,,-99.99,,2013-02-09 06:22:00,
2013-02-09 01:32:00,62.0,-99.9,30.08,NNE,27,4.0,6.0,-999,-99.99,,,-99.99,,2013-02-09 06:32:00,
2013-02-09 01:42:00,62.0,-99.9,30.08,NNE,17,6.0,8.0,-999,-99.99,,,-99.99,,2013-02-09 06:42:00,
2013-02-09 01:52:00,62.0,-99.9,30.09,NNE,29,6.0,8.0,-999,-99.99,,,-99.99,,2013-02-09 06:52:00,
2013-02-09 02:01:00,61.0,-99.9,30.09,NNE,31,6.0,8.0,-999,-99.99,,,-99.99,,2013-02-09 07:01:00,
2013-02-09 02:11:00,61.0,-99.9,30.09,NNE,28,5.0,6.0,-999,-99.99,,,-99.99,,2013-02-09 07:11:00,
2013-02-09 02:22:00,61.0,-99.9,30.09,NNE,29,7.0,8.0,-999,-99.99,,,-99.99,,2013-02-09 07:22:00,
2013-02-09 02:32:00,61.0,-99.9,30.09,NNE,33,6.0,8.0,-999,-99.99,,,-99.99,,2013-02-09 07:32:00,
2013-02-09 02:42:00,61.0,-99.9,30.09,NE,36,5.0,7.0,-999,-99.99,,,-99.99,,2013-02-09 07:42:00,
2013-02-09 02:52:00,61.0,-99.9,30.09,NNE,24,7.0,9.0,-999,-99.99,,,-99.99,,2013-02-09 07:52:00,
2013-02-09 03:01:00,61.0,-99.9,30.09,NNE,24,7.0,9.0,-999,-99.99,,,-99.99,,2013-02-09 08:01:00,
2013-02-09 03:11:00,61.0,-99.9,30.09,NNE,24,7.0,8.0,-999,-99.99,,,-99.99,,2013-02-09 08:11:00,
2013-02-09 03:22:00,61.0,-99.9,30.09,NNE,24,9.0,10.0,-999,-99.99,,,-99.99,,2013-02-09 08:22:00,
2013-02-09 03:32:00,60.0,-99.9,30.09,NNE,22,10.0,12.0,-999,-99.99,,,-99.99,,2013-02-09 08:32:00,
2013-02-09 03:42:00,60.0,-99.9,30.09,NNE,26,10.0,12.0,-999,-99.99,,,-99.99,,2013-02-09 08:42:00,
2013-02-09 03:52:00,61.0,-99.9,30.09,NNE,31,10.0,11.0,-999,-99.99,,,-99.99,,2013-02-09 08:52:00,
2013-02-09 04:03:00,61.0,-99.9,30.09,NE,37,8.0,12.0,-999,-99.99,,,-99.99,,2013-02-09 09:03:00,
2013-02-09 04:11:00,61.0,-99.9,30.09,NE,40,9.0,12.0,-999,-99.99,,,-99.99,,2013-02-09 09:11:00,
2013-02-09 04:22:00,60.0,-99.9,30.09,NE,42,11.0,14.0,-999,-99.99,,,-99.99,,2013-02-09 09:22:00,
2013-02-09 04:32:00,60.0,-99.9,30.09,NE,49,8.0,13.0,-999,-99.99,,,-99.99,,2013-02-09 09:32:00,
2013-02-09 04:42:00,60.0,-99.9,30.10,NE,40,8.0,11.0,-999,-99.99,,,-99.99,,2013-02-09 09:42:00,
2013-02-09 04:52:00,60.0,-99.9,30.10,NE,46,8.0,15.0,-999,-99.99,,,-99.99,,2013-02-09 09:52:00,
2013-02-09 05:01:00,60.0,-99.9,30.10,NE,41,11.0,13.0,-999,-99.99,,,-99.99,,2013-02-09 10:01:00,
2013-02-09 05:11:00,60.0,-99.9,30.11,NE,43,10.0,13.0,-999,-99.99,,,-99.99,,2013-02-09 10:11:00,
2013-02-09 05:21:00,60.0,-99.9,30.11,NE,41,11.0,14.0,-999,-99.99,,,-99.99,,2013-02-09 10:21:00,
2013-02-09 05:32:00,59.0,-99.9,30.11,NE,34,11.0,14.0,-999,-99.99,,,-99.99,,2013-02-09 10:32:00,
2013-02-09 05:42:00,59.0,-99.9,30.12,NE,40,14.0,16.0,-999,-99.99,,,-99.99,,2013-02-09 10:42:00,
2013-02-09 05:52:00,59.0,-99.9,30.12,NE,38,14.0,17.0,-999,-99.99,,,-99.99,,2013-02-09 10:52:00,
2013-02-09 06:02:00,59.0,-99.9,30.13,NE,41,13.0,19.0,-999,-99.99,,,-99.99,,2013-02-09 11:02:00,
2013-02-09 06:11:00,58.0,-99.9,30.13,NE,39,7.0,15.0,-999,-99.99,,,-99.99,,2013-02-09 11:11:00,
2013-02-09 06:22:00,58.0,-99.9,30.13,NE,42,9.0,16.0,-999,-99.99,,,-99.99,,2013-02-09 11:22:00,
2013-02-09 06:32:00,58.0,-99.9,30.14,NE,41,11.0,14.0,-999,-99.99,,,-99.99,,2013-02-09 11:32:00,
2013-02-09 06:42:00,58.0,-99.9,30.14,NE,39,10.0,15.0,-999,-99.99,,,-99.99,,2013-02-09 11:42:00,
2013-02-09 06:52:00,58.0,-99.9,30.14,NE,34,11.0,17.0,-999,-99.99,,,-99.99,,2013-02-09 11:52:00,
2013-02-09 07:02:00,58.0,-99.9,30.14,NE,40,13.0,17.0,-999,-99.99,,,-99.99,,2013-02-09 12:02:00,
2013-02-09 07:11:00,58.0,-99.9,30.14,NE,44,11.0,17.0,-999,-99.99,,,-99.99,,2013-02-09 12:11:00,
2013-02-09 07:22:00,57.0,-99.9,30.15,NNE,33,16.0,20.0,-999,-99.99,,,-99.99,,2013-02-09 12:22:00,
2013-02-09 07:32:00,57.0,-99.9,30.15,NNE,33,11.0,16.0,-999,-99.99,,,-99.99,,2013-02-09 12:32:00,
2013-02-09 07:42:00,57.0,-99.9,30.15,NNE,30,13.0,16.0,-999,-99.99,,,-99.99,,2013-02-09 12:42:00,
2013-02-09 07:53:00,57.0,-99.9,30.16,NE,39,10.0,13.0,-999,-99.99,,,-99.99,,2013-02-09 12:53:00,
2013-02-09 08:02:00,57.0,-99.9,30.16,NE,43,12.0,15.0,-999,-99.99,,,-99.99,,2013-02-09 13:02:00,
2013-02-09 08:11:00,57.0,-99.9,30.17,NE,45,10.0,16.0,-999,-99.99,,,-99.99,,2013-02-09 13:11:00,
2013-02-09 08:22:00,57.0,-99.9,30.17,NE,56,10.0,14.0,-999,-99.99,,,-99.99,,2013-02-09 13:22:00,
2013-02-09 08:32:00,57.0,-99.9,30.17,ENE,62,9.0,13.0,-999,-99.99,,,-99.99,,2013-02-09 13:32:00,
2013-02-09 08:42:00,57.0,-99.9,30.17,NE,53,11.0,14.0,-999,-99.99,,,-99.99,,2013-02-09 13:42:00,
2013-02-09 08:52:00,57.0,-99.9,30.18,NE,56,12.0,14.0,-999,-99.99,,,-99.99,,2013-02-09 13:52:00,
2013-02-09 09:02:00,57.0,-99.9,30.19,ENE,59,11.0,15.0,-999,-99.99,,,-99.99,,2013-02-09 14:02:00,
2013-02-09 09:12:00,57.0,-99.9,30.19,ENE,59,11.0,15.0,-999,-99.99,,,-99.99,,2013-02-09 14:12:00,
2013-02-09 09:22:00,57.0,-99.9,30.19,ENE,63,10.0,15.0,-999,-99.99,,,-99.99,,2013-02-09 14:22:00,
2013-02-09 09:32:00,57.0,-99.9,30.19,ENE,63,10.0,15.0,-999,-99.99,,,-99.99,,2013-02-09 14:32:00,
2013-02-09 09:42:00,57.0,-99.9,30.19,ENE,63,10.0,15.0,-999,-99.99,,,-99.99,,2013-02-09 14:42:00,
2013-02-09 10:32:00,60.0,-99.9,30.20,ENE,63,8.0,10.0,-999,-99.99,,,-99.99,,2013-02-09 15:32:00,
2013-02-09 10:42:00,60.0,-99.9,30.20,ENE,59,6.0,10.0,-999,-99.99,,,-99.99,,2013-02-09 15:42:00,
2013-02-09 10:52:00,61.0,-99.9,30.20,ENE,68,7.0,11.0,-999,-99.99,,,-99.99,,2013-02-09 15:52:00,
2013-02-09 11:01:00,62.0,-99.9,30.21,ENE,60,7.0,9.0,-999,-99.99,,,-99.99,,2013-02-09 16:01:00,
2013-02-09 11:11:00,62.0,-99.9,30.21,NE,52,6.0,10.0,-999,-99.99,,,-99.99,,2013-02-09 16:11:00,
2013-02-09 11:22:00,63.0,-99.9,30.20,NNE,33,7.0,10.0,-999,-99.99,,,-99.99,,2013-02-09 16:22:00,
2013-02-09 11:32:00,63.0,-99.9,30.21,ENE,65,8.0,12.0,-999,-99.99,,,-99.99,,2013-02-09 16:32:00,
2013-02-09 11:42:00,64.0,-99.9,30.20,NE,48,7.0,11.0,-999,-99.99,,,-99.99,,2013-02-09 16:42:00,
2013-02-09 11:52:00,64.0,-99.9,30.20,ENE,58,7.0,11.0,-999,-99.99,,,-99.99,,2013-02-09 16:52:00,
2013-02-09 12:01:00,64.0,-99.9,30.20,NE,36,11.0,14.0,-999,-99.99,,,-99.99,,2013-02-09 17:01:00,
2013-02-09 12:11:00,64.0,-99.9,30.20,North,10,8.0,12.0,-999,-99.99,,,-99.99,,2013-02-09 17:11:00,
2013-02-09 12:22:00,65.0,-99.9,30.19,NE,34,8.0,12.0,-999,-99.99,,,-99.99,,2013-02-09 17:22:00,
2013-02-09 12:32:00,65.0,-99.9,30.19,NNE,23,9.0,12.0,-999,-99.99,,,-99.99,,2013-02-09 17:32:00,
2013-02-09 12:42:00,66.0,-99.9,30.19,NE,34,8.0,11.0,-999,-99.99,,,-99.99,,2013-02-09 17:42:00,
2013-02-09 12:52:00,65.0,-99.9,30.18,North,11,9.0,11.0,-999,-99.99,,,-99.99,,2013-02-09 17:52:00,
2013-02-09 13:02:00,65.0,-99.9,30.18,North,354,11.0,12.0,-999,-99.99,,,-99.99,,2013-02-09 18:02:00,
2013-02-09 13:12:00,65.0,-99.9,30.17,North,349,11.0,13.0,-999,-99.99,,,-99.99,,2013-02-09 18:12:00,
2013-02-09 13:23:00,63.0,-99.9,30.17,North,351,12.0,13.0,-999,-99.99,,,-99.99,,2013-02-09 18:23:00,
2013-02-09 13:32:00,64.0,-99.9,30.16,North,357,12.0,13.0,-999,-99.99,,,-99.99,,2013-02-09 18:32:00,
2013-02-09 13:42:00,64.0,-99.9,30.16,North,349,11.0,13.0,-999,-99.99,,,-99.99,,2013-02-09 18:42:00,
2013-02-09 13:52:00,64.0,-99.9,30.16,NNW,348,13.0,14.0,-999,-99.99,,,-99.99,,2013-02-09 18:52:00,
2013-02-09 14:02:00,63.0,-99.9,30.16,North,349,14.0,15.0,-999,-99.99,,,-99.99,,2013-02-09 19:02:00,
2013-02-09 14:11:00,63.0,-99.9,30.16,North,351,14.0,16.0,-999,-99.99,,,-99.99,,2013-02-09 19:11:00,
2013-02-09 14:22:00,63.0,-99.9,30.15,North,352,15.0,16.0,-999,-99.99,,,-99.99,,2013-02-09 19:22:00,
2013-02-09 14:32:00,63.0,-99.9,30.15,North,354,14.0,15.0,-999,-99.99,,,-99.99,,2013-02-09 19:32:00,
2013-02-09 14:42:00,63.0,-99.9,30.15,North,355,14.0,15.0,-999,-99.99,,,-99.99,,2013-02-09 19:42:00,
2013-02-09 14:52:00,63.0,-99.9,30.14,North,357,13.0,15.0,-999,-99.99,,,-99.99,,2013-02-09 19:52:00,
2013-02-09 15:02:00,63.0,-99.9,30.14,North,356,13.0,14.0,-999,-99.99,,,-99.99,,2013-02-09 20:02:00,
2013-02-09 15:11:00,64.0,-99.9,30.15,North,357,12.0,15.0,-999,-99.99,,,-99.99,,2013-02-09 20:11:00,
2013-02-09 15:22:00,63.0,-99.9,30.14,North,357,13.0,15.0,-999,-99.99,,,-99.99,,2013-02-09 20:22:00,
2013-02-09 15:32:00,63.0,-99.9,30.14,North,357,13.0,15.0,-999,-99.99,,,-99.99,,2013-02-09 20:32:00,
2013-02-09 15:42:00,63.0,-99.9,30.14,North,357,15.0,16.0,-999,-99.99,,,-99.99,,2013-02-09 20:42:00,
2013-02-09 15:52:00,63.0,-99.9,30.14,North,356,13.0,15.0,-999,-99.99,,,-99.99,,2013-02-09 20:52:00,
2013-02-09 16:02:00,64.0,-99.9,30.14,North,354,12.0,15.0,-999,-99.99,,,-99.99,,2013-02-09 21:02:00,
2013-02-09 16:12:00,64.0,-99.9,30.14,North,359,11.0,13.0,-999,-99.99,,,-99.99,,2013-02-09 21:12:00,
2013-02-09 16:22:00,64.0,-99.9,30.14,North,358,11.0,13.0,-999,-99.99,,,-99.99,,2013-02-09 21:22:00,
2013-02-09 16:32:00,64.0,-99.9,30.14,North,358,11.0,13.0,-999,-99.99,,,-99.99,,2013-02-09 21:32:00,
2013-02-09 16:42:00,64.0,-99.9,30.14,North,358,11.0,13.0,-999,-99.99,,,-99.99,,2013-02-09 21:42:00,
2013-02-09 17:02:00,64.0,-99.9,30.14,North,357,12.0,14.0,-999,-99.99,,,-99.99,,2013-02-09 22:02:00,
2013-02-09 17:11:00,64.0,-99.9,30.14,North,357,13.0,15.0,-999,-99.99,,,-99.99,,2013-02-09 22:11:00,
2013-02-09 17:22:00,64.0,-99.9,30.13,North,357,12.0,15.0,-999,-99.99,,,-99.99,,2013-02-09 22:22:00,
2013-02-09 17:32:00,64.0,-99.9,30.14,North,357,12.0,14.0,-999,-99.99,,,-99.99,,2013-02-09 22:32:00,
2013-02-09 17:42:00,64.0,-99.9,30.14,North,357,13.0,14.0,-999,-99.99,,,-99.99,,2013-02-09 22:42:00,
2013-02-09 17:52:00,64.0,-99.9,30.13,North,357,12.0,14.0,-999,-99.99,,,-99.99,,2013-02-09 22:52:00,
2013-02-09 18:02:00,64.0,-99.9,30.13,North,359,13.0,14.0,-999,-99.99,,,-99.99,,2013-02-09 23:02:00,
2013-02-09 18:11:00,64.0,-99.9,30.14,North,357,12.0,14.0,-999,-99.99,,,-99.99,,2013-02-09 23:11:00,
2013-02-09 18:22:00,65.0,-99.9,30.13,North,8,14.0,15.0,-999,-99.99,,,-99.99,,2013-02-09 23:22:00,
2013-02-09 18:32:00,65.0,-99.9,30.13,North,9,13.0,16.0,-999,-99.99,,,-99.99,,2013-02-09 23:32:00,
2013-02-09 18:42:00,64.0,-99.9,30.13,North,9,14.0,16.0,-999,-99.99,,,-99.99,,2013-02-09 23:42:00,
2013-02-09 18:52:00,65.0,-99.9,30.13,North,8,12.0,16.0,-999,-99.99,,,-99.99,,2013-02-09 23:52:00,
2013-02-09 19:02:00,64.0,-99.9,30.13,NNE,18,10.0,13.0,-999,-99.99,,,-99.99,,2013-02-10 00:02:00,
2013-02-09 19:12:00,65.0,-99.9,30.13,NNE,12,10.0,11.0,-999,-99.99,,,-99.99,,2013-02-10 00:12:00,
2013-02-09 19:22:00,64.0,-99.9,30.13,NNE,21,7.0,8.0,-999,-99.99,,,-99.99,,2013-02-10 00:22:00,
2013-02-09 19:32:00,65.0,-99.9,30.13,NNE,26,6.0,8.0,-999,-99.99,,,-99.99,,2013-02-10 00:32:00,
2013-02-09 19:42:00,65.0,-99.9,30.13,NNE,26,5.0,7.0,-999,-99.99,,,-99.99,,2013-02-10 00:42:00,
2013-02-09 19:52:00,65.0,-99.9,30.14,NNE,32,5.0,7.0,-999,-99.99,,,-99.99,,2013-02-10 00:52:00,
2013-02-09 20:01:00,65.0,-99.9,30.14,NNE,33,6.0,7.0,-999,-99.99,,,-99.99,,2013-02-10 01:01:00,
2013-02-09 20:12:00,65.0,-99.9,30.14,NE,35,6.0,7.0,-999,-99.99,,,-99.99,,2013-02-10 01:12:00,
2013-02-09 20:22:00,65.0,-99.9,30.14,NE,37,6.0,7.0,-999,-99.99,,,-99.99,,2013-02-10 01:22:00,
2013-02-09 20:32:00,65.0,-99.9,30.14,NE,38,5.0,7.0,-999,-99.99,,,-99.99,,2013-02-10 01:32:00,
2013-02-09 20:42:00,66.0,-99.9,30.15,NE,43,5.0,8.0,-999,-99.99,,,-99.99,,2013-02-10 01:42:00,
2013-02-09 20:52:00,66.0,-99.9,30.15,NE,43,5.0,7.0,-999,-99.99,,,-99.99,,2013-02-10 01:52:00,
2013-02-09 21:01:00,66.0,-99.9,30.15,ENE,57,5.0,8.0,-999,-99.99,,,-99.99,,2013-02-10 02:01:00,
2013-02-09 21:11:00,66.0,-99.9,30.16,ENE,61,5.0,9.0,-999,-99.99,,,-99.99,,2013-02-10 02:11:00,
2013-02-09 21:22:00,66.0,-99.9,30.16,ENE,71,7.0,9.0,-999,-99.99,,,-99.99,,2013-02-10 02:22:00,
2013-02-09 21:32:00,67.0,-99.9,30.16,East,81,10.0,14.0,-999,-99.99,,,-99.99,,2013-02-10 02:32:00,
2013-02-09 21:42:00,67.0,-99.9,30.16,ENE,75,11.0,16.0,-999,-99.99,,,-99.99,,2013-02-10 02:42:00,
2013-02-09 21:52:00,67.0,-99.9,30.17,East,81,11.0,17.0,-999,-99.99,,,-99.99,,2013-02-10 02:52:00,
2013-02-09 22:02:00,66.0,-99.9,30.17,East,79,10.0,15.0,-999,-99.99,,,-99.99,,2013-02-10 03:02:00,
2013-02-09 22:12:00,66.0,-99.9,30.17,East,86,8.0,13.0,-999,-99.99,,,-99.99,,2013-02-10 03:12:00,
2013-02-09 22:22:00,66.0,-99.9,30.18,East,89,11.0,17.0,-999,-99.99,,,-99.99,,2013-02-10 03:22:00,
2013-02-09 22:32:00,66.0,-99.9,30.18,East,90,11.0,15.0,-999,-99.99,,,-99.99,,2013-02-10 03:32:00,
2013-02-09 22:42:00,66.0,-99.9,30.18,East,93,10.0,15.0,-999,-99.99,,,-99.99,,2013-02-10 03:42:00,
2013-02-09 22:52:00,66.0,-99.9,30.18,East,81,11.0,16.0,-999,-99.99,,,-99.99,,2013-02-10 03:52:00,
2013-02-09 23:02:00,65.0,-99.9,30.19,East,89,10.0,13.0,-999,-99.99,,,-99.99,,2013-02-10 04:02:00,
2013-02-09 23:11:00,65.0,-99.9,30.19,East,93,11.0,15.0,-999,-99.99,,,-99.99,,2013-02-10 04:11:00,
2013-02-09 23:22:00,65.0,-99.9,30.18,East,90,10.0,15.0,-999,-99.99,,,-99.99,,2013-02-10 04:22:00,
2013-02-09 23:32:00,65.0,-99.9,30.19,East,89,11.0,16.0,-999,-99.99,,,-99.99,,2013-02-10 04:32:00,
2013-02-09 23:42:00,64.0,-99.9,30.19,East,92,11.0,15.0,-999,-99.99,,,-99.99,,2013-02-10 04:42:00,
2013-02-09 23:52:00,64.0,-99.9,30.19,East,92,11.0,17.0,-999,-99.99,,,-99.99,,2013-02-10 04:52:00,